Location: Fenile
(46.0500°N, 9.5500°E)
Time: 19:10:03
(UTC+00:00)

SeaSat 1 - Pass Details

Date: 03 March 2021
Orbit: 744 x 747 km, 108.0° (Epoch: 12 April)

Event Time Altitude Azimuth Distance (km) Brightness Sun altitude
Rises 19:33:31 0° 21° (NNE) 3,201 5.7 -25.2°
Reaches altitude 10° 19:35:57 10° 12° (NNE) 2,274 5.0 -25.6°
Maximum altitude 19:40:22 34° 309° (NW) 1,226 4.0 -26.3°
Drops below altitude 10° 19:44:46 10° 246° (WSW) 2,263 5.5 -27.1°
Sets 19:47:11 0° 237° (WSW) 3,184 6.2 -27.5°
